Weather in Alekseyevka

Russia / Chelyabinsk Oblast     53°33′07″N   61°27′37″E
temp.,
°C
wind,
m/s
gust,
m/s
humid.,
%
clouds,
%
prec.,
mm/h
press.,
hPa
HPBL,
m
7 march, sun
sun723:00−11sw478655 0.0 1014124
02:00−10sw2288100 0.0 101321
05:00−10sse1289100 0.0 101221
08:00−9ese2496100 0.6 1009171
11:00−8ene4695100 2.8 1005276
14:00−7ne5795100 2.1 1002415
17:00−7n61094100 4.5 1002595
20:00−9nnw61291100 1.0 1005480
8 march, mon
mon823:00−13nw5119068 1.0 1010241
02:00−18w45870 0.0 101262
05:00−19wsw34880 0.0 101447
08:00−18ssw479036 0.0 1014107
11:00−11sw7128768 0.0 1013433
14:00−8sw101584100 0.2 1011840
17:00−6sw101682100 0.3 10111051
20:00−6sw91784100 0.0 1011796
9 march, tue
tue923:00−6sw91885100 0.0 1011689
02:00−6sw8178797 0.0 1010564
05:00−7ssw8168898 0.0 1010537
08:00−7ssw91788100 0.0 1009579
11:00−6sw91687100 0.0 1008660
14:00−4sw81487100 0.0 1008680
17:00−4sw71387100 0.0 1008568
20:00−6sw41091100 0.0 1009264
10 march, wed
wed1023:00−6sw3593100 0.0 1009121
02:00−6ssw2497100 0.6 1007145
05:00−7ssw2296100 1.1 100543
08:00−7w2397100 0.7 1004126
11:00−7nnw4694100 1.8 1003364
14:00−7wnw569299 0.3 1004495
17:00−8w4795100 0.6 1006384
20:00−10wnw4795100 1.4 1008447
11 march, thu
thu1123:00−16wnw479197 1.6 1011114
02:00−21w458995 0.0 101283
05:00−24w458674 0.0 101560
08:00−25w348682 0.0 101759
11:00−21w358570 0.0 1019235
14:00−18w46840 0.0 1019333
17:00−18wsw48860 0.0 1020296
20:00−20wsw48880 0.0 1021112